This demonstration page uses our WeatherBlox Daily Observations layout. Learn more.

38.88101, -77.10428

Hourly Observations for June 18, 2017

Temp ( °F °C ) Dew Point ( °F °C ) Humidity (%) Winds ( mph kmh ) Pressure ( in mb ) Visibility ( mi km ) Precip ( " mm )
12:21 am 00:21 Cloudy 77 25 74 23.3 90 90 S 14 22 29.88 1012 10 16.0934 0 0
12:52 am 00:52 Cloudy 77 25 74 23.3 90 90 S 10 17 29.88 1012 10 16.0934 0 0
1:52 am 01:52 Cloudy 77 25 74 23.3 90 90 S 12 19 29.87 1012 10 16.0934 0 0
2:08 am 02:08 Cloudy 77 25 74 23.3 90 90 S 13 20 29.88 1012 10 16.0934 0 0
2:30 am 02:30 Cloudy 77 25 74 23.3 90 90 S 13 20 29.88 1012 10 16.0934 0 0
2:52 am 02:52 Cloudy 77 25 74 23.3 90 90 S 12 19 29.86 1011 10 16.0934 0 0
3:34 am 03:34 Partly Cloudy 76 24.4 74 23.3 94 94 S 12 19 29.85 1011 10 16.0934 0 0
3:52 am 03:52 Partly Cloudy 76 24.4 74 23.3 94 94 SSW 10 17 29.85 1011 10 16.0934 0 0
4:03 am 04:03 Cloudy 76 24.4 74 23.3 94 94 S 12 19 29.85 1011 10 16.0934 0 0
4:52 am 04:52 Cloudy 77 25 74 23.3 90 90 S 14 22 29.85 1011 10 16.0934 0 0
4:59 am 04:59 Cloudy 77 25 74 23.3 90 90 S 13 20 29.85 1011 10 16.0934 0 0
5:50 am 05:50 Cloudy 77 25 73 23 89 89 S 9 15 29.88 1012 10 16.0934 0 0
5:52 am 05:52 Cloudy 77 25 74 23.3 90 90 S 10 17 29.88 1012 10 16.0934 0 0
6:00 am 06:00 Cloudy 77 25 74 23.3 90 90 S 8 13 29.88 1012 10 16.0934 0 0
6:52 am 06:52 Cloudy 77 25 73 22.8 88 88 SSW 13 20 29.88 1012 10 16.0934 0 0
7:52 am 07:52 Mostly Cloudy 78 25.6 74 23.3 87 87 S 14 22 29.88 1012 10 16.0934 0 0
8:52 am 08:52 Cloudy 79 26.1 74 23.3 85 85 S 10 17 29.89 1012 10 16.0934 0 0
9:52 am 09:52 Mostly Cloudy 82 27.8 74 23.3 77 77 S 16 26 29.87 1012 10 16.0934 0 0
10:32 am 10:32 Partly Cloudy 84 28.9 75 23.9 74 74 S 16 26 29.88 1012 10 16.0934 0 0
10:52 am 10:52 Partly Cloudy 84 28.9 74 23.3 72 72 SSW 14 22 29.87 1011 10 16.0934 0 0
11:52 am 11:52 Mostly Cloudy 86 30 74 23.3 67 67 S 16 26 29.85 1011 10 16.0934 0 0
12:52 pm 12:52 Partly Cloudy 89 31.7 74 23.3 61 61 S 14 22 29.84 1011 10 16.0934 0 0
1:52 pm 13:52 Mostly Cloudy 89 31.7 74 23.3 61 61 S 14 22 29.82 1010 10 16.0934 0 0
2:52 pm 14:52 Mostly Cloudy 91 32.8 73 22.8 56 56 S 17 28 29.8 1009 10 16.0934 0 0
3:52 pm 15:52 Partly Cloudy 91 32.8 72 22.2 54 54 SSW 21 33 29.8 1009 10 16.0934 0 0
4:52 pm 16:52 Mostly Cloudy 91 32.8 74 23.3 57 57 S 17 28 29.78 1009 10 16.0934 0 0
5:52 pm 17:52 Mostly Cloudy 89 31.7 73 22.8 59 59 SSW 21 33 29.77 1008 10 16.0934 0 0
6:52 pm 18:52 Mostly Cloudy 89 31.7 73 22.8 59 59 SSW 20 31 29.79 1009 10 16.0934 0 0
7:52 pm 19:52 Mostly Cloudy 88 31.1 72 22.2 59 59 SSW 20 31 29.79 1009 10 16.0934 0 0
8:52 pm 20:52 Mostly Cloudy 86 30 73 22.8 65 65 SSW 17 28 29.8 1009 10 16.0934 0 0
9:52 pm 21:52 Mostly Cloudy 85 29.4 73 22.8 68 68 S 15 24 29.83 1010 10 16.0934 0 0
10:52 pm 22:52 Mostly Cloudy 84 28.9 74 23.3 72 72 SSW 17 28 29.83 1010 10 16.0934 0 0

Powered by AerisWeather